Weather History for Champaign, IL

Change the Weather History Date:

Saturday, March 10, 2012

  Actual Average Record
Temperature  
Mean Temperature 42 °F 38 °F  
Max Temperature 59 °F 48 °F 68 °F (2009)
Min Temperature 24 °F 29 °F 9 °F (1998)
Degree Days  
Heating Degree Days 23 27  
Month to date heating degree days 238 285  
Since 1 July heating degree days 4038 4787  
Cooling Degree Days 0 0  
Month to date cooling degree days 0 0  
Year to date cooling degree days 0 0  
Moisture  
Dew Point 24 °F    
Average Humidity 56    
Maximum Humidity 81    
Minimum Humidity 30    
Precipitation  
Precipitation 0.00 in 0.07 in 0.62 in (2009)
Month to date precipitation 0.85 0.64  
Year to date precipitation 4.69 4.71  
Sea Level Pressure  
Sea Level Pressure 30.42 in    
Wind  
Wind Speed 13 mph (SSE)    
Max Wind Speed 23 mph    
Max Gust Speed 26 mph    
Visibility 10 miles    
Events      
T = Trace of Precipitation, MM = Missing Value Source: NWS Daily Summary

Daily Weather History Graph

Daily Weather History Graph

Search for Another Location

Airport:

Trip Planner

Search our weather history database for the weather conditions in past years. The results will help you decide how hot, cold, wet, or windy it might be!

Date:

Astronomy

Mar. 10, 2012 Rise Set
Actual Time 6:11 AM CST 5:55 PM CST
Civil Twilight 5:44 AM CST 6:22 PM CST
Nautical Twilight 5:13 AM CST 6:53 PM CST
Astronomical Twilight 4:41 AM CST 7:25 PM CST
Moon 9:07 PM CST (3/10) 7:06 AM CST (3/10)
Length of Visible Light 12h 37m
Length of Day
11h 43m
Waning Gibbous, 92% of the Moon is Illuminated
Mar 10
Waning Gibbous
Mar 14
Last Quarter
Mar 22
New
Mar 30
First Quarter
Apr 6
Full

Hourly Weather History & Observations

Time (CST) Temp. Windchill Dew Point Humidity Pressure Visibility Wind Dir Wind Speed Gust Speed Precip Events Conditions
12:53 AM 25.0 °F 16.3 °F 17.1 °F 72% 30.53 in 10.0 mi East 8.1 mph - N/A   Clear
1:53 AM 26.1 °F 17.6 °F 19.0 °F 75% 30.51 in 10.0 mi East 8.1 mph - N/A   Clear
2:53 AM 25.0 °F 16.3 °F 19.0 °F 78% 30.50 in 10.0 mi East 8.1 mph - N/A   Clear
3:53 AM 25.0 °F 16.3 °F 19.0 °F 78% 30.48 in 10.0 mi ESE 8.1 mph - N/A   Clear
4:53 AM 26.1 °F 16.8 °F 19.0 °F 75% 30.48 in 10.0 mi ESE 9.2 mph - N/A   Clear
5:53 AM 26.1 °F 18.4 °F 19.0 °F 75% 30.50 in 10.0 mi SE 6.9 mph - N/A   Clear
6:53 AM 28.0 °F 19.3 °F 21.0 °F 75% 30.51 in 10.0 mi SSE 9.2 mph - N/A   Clear
7:53 AM 34.0 °F 24.2 °F 23.0 °F 64% 30.51 in 10.0 mi South 15.0 mph - N/A   Clear
8:53 AM 39.0 °F 29.6 °F 23.0 °F 53% 30.51 in 10.0 mi South 18.4 mph - N/A   Clear
9:53 AM 44.1 °F 36.5 °F 21.9 °F 42% 30.49 in 10.0 mi South 17.3 mph - N/A   Clear
10:53 AM 48.0 °F - 21.9 °F 36% 30.47 in 10.0 mi South 20.7 mph 24.2 mph N/A   Clear
11:53 AM 52.0 °F - 24.1 °F 34% 30.46 in 10.0 mi SSW 18.4 mph 26.5 mph N/A   Clear
12:53 PM 54.0 °F - 25.0 °F 33% 30.42 in 10.0 mi South 18.4 mph - N/A   Clear
1:53 PM 57.0 °F - 26.1 °F 30% 30.39 in 10.0 mi South 18.4 mph 25.3 mph N/A   Clear
2:53 PM 57.9 °F - 28.0 °F 32% 30.37 in 10.0 mi South 13.8 mph 21.9 mph N/A   Clear
3:53 PM 57.9 °F - 28.0 °F 32% 30.34 in 10.0 mi South 15.0 mph 20.7 mph N/A   Clear
4:53 PM 55.9 °F - 28.9 °F 36% 30.32 in 10.0 mi South 16.1 mph - N/A   Clear
5:53 PM 48.9 °F - 28.9 °F 46% 30.32 in 10.0 mi South 9.2 mph - N/A   Clear
6:53 PM 45.0 °F 39.7 °F 30.0 °F 56% 30.32 in 10.0 mi South 10.4 mph - N/A   Clear
7:53 PM 44.1 °F 39.0 °F 28.9 °F 55% 30.32 in 10.0 mi South 9.2 mph - N/A   Clear
8:53 PM 44.1 °F 38.1 °F 28.9 °F 55% 30.33 in 10.0 mi South 11.5 mph - N/A   Clear
9:53 PM 42.1 °F 34.9 °F 28.0 °F 58% 30.32 in 10.0 mi SSE 13.8 mph - N/A   Clear
10:53 PM 39.9 °F 33.9 °F 27.0 °F 60% 30.30 in 10.0 mi South 9.2 mph - N/A   Clear
11:53 PM 39.0 °F 32.3 °F 27.0 °F 62% 30.29 in 10.0 mi SSE 10.4 mph - N/A   Clear